Time,TemperatureF,DewpointF,PressureIn,WindDirection,WindDirectionDegrees,WindSpeedMPH,WindSpeedGustMPH,Humidity,HourlyPrecipIn,Conditions,Clouds,dailyrainin,SoftwareType,DateUTC
2013-12-18 00:12:00,20.0,16.0,30.15,WNW,288,5.0,10.0,83,0.00,,,0.03,,2013-12-18 06:12:00,
2013-12-18 00:22:00,20.0,15.0,30.16,WSW,258,6.0,10.0,82,0.00,,,0.03,,2013-12-18 06:22:00,
2013-12-18 00:42:00,20.0,16.0,30.16,West,271,5.0,8.0,83,0.00,,,0.03,,2013-12-18 06:42:00,
2013-12-18 00:52:00,20.0,15.0,30.16,West,267,5.0,10.0,82,0.00,,,0.03,,2013-12-18 06:52:00,
2013-12-18 01:12:00,18.0,14.0,30.16,West,265,6.0,8.0,83,0.00,,,0.03,,2013-12-18 07:12:00,
2013-12-18 01:22:00,17.0,13.0,30.16,West,273,4.0,9.0,84,0.00,,,0.03,,2013-12-18 07:22:00,
2013-12-18 01:42:00,18.0,14.0,30.16,West,262,4.0,8.0,84,0.00,,,0.03,,2013-12-18 07:42:00,
2013-12-18 01:52:00,18.0,14.0,30.16,West,271,4.0,9.0,83,0.00,,,0.03,,2013-12-18 07:52:00,
2013-12-18 02:12:00,18.0,14.0,30.16,West,271,6.0,8.0,84,0.00,,,0.03,,2013-12-18 08:12:00,
2013-12-18 02:22:00,18.0,14.0,30.16,West,271,6.0,8.0,84,0.00,,,0.03,,2013-12-18 08:22:00,
2013-12-18 02:42:00,17.0,13.0,30.16,West,279,5.0,7.0,84,0.00,,,0.03,,2013-12-18 08:42:00,
2013-12-18 02:52:00,16.0,12.0,30.17,West,260,3.0,6.0,84,0.00,,,0.03,,2013-12-18 08:52:00,
2013-12-18 03:11:00,16.0,13.0,30.17,WSW,253,5.0,7.0,86,0.00,,,0.03,,2013-12-18 09:11:00,
2013-12-18 03:22:00,16.0,12.0,30.18,West,259,4.0,8.0,84,0.00,,,0.03,,2013-12-18 09:22:00,
2013-12-18 03:43:00,15.0,12.0,30.18,West,265,5.0,8.0,86,0.00,,,0.03,,2013-12-18 09:43:00,
2013-12-18 03:53:00,16.0,13.0,30.18,WSW,250,4.0,7.0,87,0.00,,,0.03,,2013-12-18 09:53:00,
2013-12-18 04:13:00,17.0,13.0,30.18,West,273,6.0,9.0,85,0.00,,,0.03,,2013-12-18 10:13:00,
2013-12-18 04:23:00,17.0,13.0,30.18,West,263,6.0,9.0,85,0.00,,,0.03,,2013-12-18 10:23:00,
2013-12-18 04:42:00,16.0,12.0,30.19,West,279,4.0,8.0,85,0.00,,,0.03,,2013-12-18 10:42:00,
2013-12-18 04:52:00,16.0,12.0,30.19,West,268,5.0,9.0,85,0.00,,,0.03,,2013-12-18 10:52:00,
2013-12-18 05:12:00,16.0,12.0,30.19,West,274,4.0,6.0,85,0.00,,,0.03,,2013-12-18 11:12:00,
2013-12-18 05:23:00,15.0,12.0,30.19,West,270,4.0,6.0,86,0.00,,,0.03,,2013-12-18 11:23:00,
2013-12-18 05:42:00,17.0,14.0,30.18,West,262,4.0,6.0,86,0.00,,,0.03,,2013-12-18 11:42:00,
2013-12-18 05:53:00,16.0,12.0,30.19,SW,231,4.0,7.0,85,0.00,,,0.03,,2013-12-18 11:53:00,
2013-12-18 06:11:00,16.0,12.0,30.19,WSW,243,2.0,5.0,85,0.00,,,0.03,,2013-12-18 12:11:00,
2013-12-18 06:22:00,14.0,10.0,30.19,WSW,243,1.0,3.0,85,0.00,,,0.03,,2013-12-18 12:22:00,
2013-12-18 06:42:00,14.0,11.0,30.19,WSW,243,1.0,3.0,87,0.00,,,0.03,,2013-12-18 12:42:00,
2013-12-18 06:52:00,15.0,12.0,30.19,WSW,242,2.0,5.0,87,0.00,,,0.03,,2013-12-18 12:52:00,
2013-12-18 07:22:00,13.0,10.0,30.19,WSW,239,4.0,7.0,88,0.00,,,0.03,,2013-12-18 13:22:00,
2013-12-18 07:42:00,13.0,10.0,30.19,WSW,237,4.0,6.0,88,0.00,,,0.03,,2013-12-18 13:42:00,
2013-12-18 07:52:00,14.0,11.0,30.19,SW,232,5.0,8.0,88,0.00,,,0.03,,2013-12-18 13:52:00,
2013-12-18 08:11:00,14.0,11.0,30.18,SW,236,3.0,6.0,88,0.00,,,0.03,,2013-12-18 14:11:00,
2013-12-18 08:22:00,14.0,11.0,30.18,SW,236,2.0,4.0,87,0.00,,,0.03,,2013-12-18 14:22:00,
2013-12-18 08:42:00,14.0,11.0,30.18,SW,236,3.0,4.0,88,0.00,,,0.03,,2013-12-18 14:42:00,
2013-12-18 08:52:00,15.0,12.0,30.19,SW,225,4.0,7.0,87,0.00,,,0.03,,2013-12-18 14:52:00,
2013-12-18 09:11:00,16.0,12.0,30.19,SW,232,3.0,6.0,85,0.00,,,0.03,,2013-12-18 15:11:00,
2013-12-18 09:22:00,16.0,12.0,30.19,SSW,200,4.0,7.0,85,0.00,,,0.03,,2013-12-18 15:22:00,
2013-12-18 09:44:00,15.0,11.0,30.18,SSW,201,5.0,9.0,84,0.00,,,0.03,,2013-12-18 15:44:00,
2013-12-18 09:53:00,16.0,13.0,30.18,SSW,198,4.0,7.0,86,0.00,,,0.03,,2013-12-18 15:53:00,
2013-12-18 10:23:00,18.0,14.0,30.18,SW,214,4.0,7.0,84,0.00,,,0.03,,2013-12-18 16:23:00,
2013-12-18 10:42:00,20.0,16.0,30.18,SSE,165,4.0,7.0,83,0.00,,,0.03,,2013-12-18 16:42:00,
2013-12-18 10:53:00,21.0,16.0,30.16,SSE,167,4.0,6.0,82,0.00,,,0.03,,2013-12-18 16:53:00,
2013-12-18 11:12:00,22.0,17.0,30.15,South,169,6.0,8.0,82,0.00,,,0.03,,2013-12-18 17:12:00,
2013-12-18 11:22:00,24.0,19.0,30.14,South,186,4.0,9.0,80,0.00,,,0.03,,2013-12-18 17:22:00,
2013-12-18 11:42:00,26.0,20.0,30.13,South,172,5.0,8.0,78,0.00,,,0.03,,2013-12-18 17:42:00,
2013-12-18 11:52:00,27.0,20.0,30.11,SSE,162,8.0,12.0,76,0.00,,,0.03,,2013-12-18 17:52:00,
2013-12-18 12:12:00,27.0,20.0,30.10,SSE,167,8.0,12.0,75,0.00,,,0.03,,2013-12-18 18:12:00,
2013-12-18 12:22:00,28.0,21.0,30.09,SSE,165,8.0,12.0,74,0.00,,,0.03,,2013-12-18 18:22:00,
2013-12-18 12:42:00,29.0,22.0,30.08,South,171,8.0,12.0,75,0.00,,,0.03,,2013-12-18 18:42:00,
2013-12-18 12:52:00,29.0,21.0,30.06,South,174,9.0,12.0,73,0.00,,,0.03,,2013-12-18 18:52:00,
2013-12-18 13:11:00,29.0,22.0,30.04,SSE,158,10.0,13.0,74,0.00,,,0.03,,2013-12-18 19:11:00,
2013-12-18 13:21:00,30.0,22.0,30.03,South,169,9.0,13.0,73,0.00,,,0.03,,2013-12-18 19:21:00,
2013-12-18 13:32:00,30.0,22.0,30.03,South,169,9.0,13.0,73,0.00,,,0.03,,2013-12-18 19:32:00,
2013-12-18 13:42:00,30.0,22.0,30.03,South,169,9.0,13.0,73,0.00,,,0.03,,2013-12-18 19:42:00,
2013-12-18 13:52:00,30.0,22.0,29.99,South,171,11.0,16.0,71,0.00,,,0.03,,2013-12-18 19:52:00,
2013-12-18 14:12:00,30.0,22.0,29.98,SSE,161,11.0,14.0,71,0.00,,,0.02,,2013-12-18 20:12:00,
2013-12-18 14:22:00,30.0,22.0,29.96,SSE,158,13.0,17.0,71,0.00,,,0.02,,2013-12-18 20:22:00,
2013-12-18 14:42:00,31.0,23.0,29.95,SSE,165,14.0,19.0,71,0.00,,,0.02,,2013-12-18 20:42:00,
2013-12-18 14:53:00,30.0,22.0,29.94,SSE,162,13.0,18.0,73,0.00,,,0.02,,2013-12-18 20:53:00,
2013-12-18 15:11:00,30.0,23.0,29.95,SSE,165,13.0,21.0,74,0.00,,,0.01,,2013-12-18 21:11:00,
2013-12-18 15:22:00,30.0,23.0,29.94,South,170,12.0,17.0,75,0.00,,,0.01,,2013-12-18 21:22:00,
2013-12-18 15:43:00,29.0,23.0,29.93,South,172,12.0,18.0,77,0.00,,,0.01,,2013-12-18 21:43:00,
2013-12-18 15:53:00,29.0,23.0,29.93,South,170,8.0,14.0,79,0.00,,,0.01,,2013-12-18 21:53:00,
2013-12-18 16:12:00,29.0,24.0,29.91,South,175,8.0,15.0,80,0.00,,,0.00,,2013-12-18 22:12:00,
2013-12-18 16:23:00,29.0,24.0,29.91,South,179,8.0,13.0,81,0.00,,,0.00,,2013-12-18 22:23:00,
2013-12-18 16:43:00,30.0,25.0,29.90,SSW,192,9.0,16.0,81,0.00,,,0.00,,2013-12-18 22:43:00,
2013-12-18 16:52:00,30.0,25.0,29.90,SSW,194,10.0,15.0,82,0.00,,,0.00,,2013-12-18 22:52:00,
2013-12-18 17:12:00,30.0,25.0,29.89,SSW,200,9.0,16.0,82,0.00,,,0.00,,2013-12-18 23:12:00,
2013-12-18 17:22:00,30.0,25.0,29.89,SSW,205,8.0,14.0,83,0.00,,,0.00,,2013-12-18 23:22:00,
2013-12-18 17:42:00,30.0,25.0,29.89,SSW,197,8.0,13.0,82,0.00,,,0.00,,2013-12-18 23:42:00,
2013-12-18 17:53:00,30.0,25.0,29.88,SSW,206,9.0,16.0,82,0.00,,,0.00,,2013-12-18 23:53:00,
2013-12-18 18:02:00,30.0,25.0,29.88,SSW,206,9.0,16.0,82,0.00,,,0.00,,2013-12-19 00:02:00,
2013-12-18 18:11:00,30.0,25.0,29.88,SSW,206,9.0,16.0,82,0.00,,,0.00,,2013-12-19 00:11:00,
2013-12-18 18:22:00,31.0,26.0,29.88,SSW,209,9.0,15.0,82,0.00,,,0.00,,2013-12-19 00:22:00,
2013-12-18 18:42:00,31.0,26.0,29.89,SSW,209,8.0,12.0,82,0.00,,,0.00,,2013-12-19 00:42:00,
2013-12-18 18:52:00,31.0,26.0,29.89,South,191,6.0,11.0,81,0.00,,,0.00,,2013-12-19 00:52:00,
2013-12-18 19:11:00,31.0,26.0,29.90,SSW,211,6.0,9.0,82,0.00,,,0.00,,2013-12-19 01:11:00,
2013-12-18 19:21:00,32.0,27.0,29.89,SW,219,6.0,10.0,82,0.00,,,0.00,,2013-12-19 01:21:00,
2013-12-18 19:42:00,31.0,26.0,29.90,SSW,210,4.0,7.0,82,0.00,,,0.00,,2013-12-19 01:42:00,
2013-12-18 19:52:00,33.0,28.0,29.89,SSW,201,6.0,12.0,83,0.00,,,0.00,,2013-12-19 01:52:00,
2013-12-18 20:01:00,33.0,28.0,29.89,SSW,201,6.0,12.0,83,0.00,,,0.00,,2013-12-19 02:01:00,
2013-12-18 20:11:00,33.0,28.0,29.89,SSW,201,6.0,12.0,83,0.00,,,0.00,,2013-12-19 02:11:00,
2013-12-18 20:22:00,35.0,30.0,29.88,SSW,192,7.0,13.0,81,0.00,,,0.00,,2013-12-19 02:22:00,
2013-12-18 21:12:00,35.0,30.0,29.87,SW,217,8.0,14.0,83,0.00,,,0.00,,2013-12-19 03:12:00,
2013-12-18 21:21:00,35.0,31.0,29.87,SSW,194,9.0,15.0,84,0.00,,,0.00,,2013-12-19 03:21:00,
2013-12-18 21:43:00,36.0,32.0,29.86,South,190,11.0,19.0,85,0.00,,,0.00,,2013-12-19 03:43:00,
2013-12-18 21:54:00,36.0,32.0,29.86,SSW,211,10.0,17.0,84,0.00,,,0.00,,2013-12-19 03:54:00,
2013-12-18 22:12:00,36.0,32.0,29.86,SSW,208,11.0,17.0,84,0.00,,,0.00,,2013-12-19 04:12:00,
2013-12-18 22:23:00,36.0,32.0,29.86,SW,221,9.0,18.0,84,0.00,,,0.00,,2013-12-19 04:23:00,
2013-12-18 22:43:00,37.0,33.0,29.86,SSW,194,11.0,17.0,84,0.00,,,0.00,,2013-12-19 04:43:00,
2013-12-18 22:53:00,37.0,33.0,29.85,SW,217,9.0,17.0,84,0.00,,,0.00,,2013-12-19 04:53:00,
2013-12-18 23:12:00,37.0,33.0,29.86,SSW,201,9.0,17.0,84,0.00,,,0.00,,2013-12-19 05:12:00,
2013-12-18 23:22:00,38.0,34.0,29.85,SW,217,11.0,18.0,84,0.00,,,0.00,,2013-12-19 05:22:00,
2013-12-18 23:42:00,37.0,33.0,29.86,SW,226,9.0,14.0,84,0.00,,,0.00,,2013-12-19 05:42:00,
2013-12-18 23:52:00,38.0,34.0,29.85,SW,216,9.0,14.0,84,0.00,,,0.00,,2013-12-19 05:52:00,